Wind_Speed
8 9 9 12 14 12 15 15 14 11 9 8 9 9 9 12 9 12 13 12 12 12 11 11 11 10 10 10 9 8 8 10 11 13 13 14 15 13 15 18 17 16 17 17 17 17 16 16 16
6 5 2 6 16 13 16 16 14 11 10 8 8 7 5 8 9 10 11 13 13 12 11 12 11 10 9 8 7 7 7 8 9 10 11 12 13 14 13 16 16 16 16 16 15 14 14 14 14
6 3 1 1 20 16 12 15 11 8 7 6 6 4 5 7 8 8 8 12 12 11 11 13 10 9 9 8 7 7 6 5 6 7 8 9 11 13 12 12 15 14 14 14 14 12 12 12 12
5 2 4 7 14 14 10 10 10 9 8 6 4 3 5 5 6 7 7 10 11 10 10 11 10 8 8 8 7 8 7 5 3 4 5 7 10 12 11 12 12 14 13 13 13 12 10 10 10
5 3 1 12 10 6 8 7 6 7 7 3 3 3 4 5 7 7 6 9 11 11 10 9 8 8 7 7 8 9 9 7 8 4 4 10 9 11 11 10 10 13 14 12 10 11 10 10 9
4 5 4 3 3 2 5 5 5 5 5 6 5 5 4 4 6 7 7 9 10 11 10 7 7 7 8 8 6 8 10 15 15 10 6 11 12 11 11 10 10 9 12 12 12 10 9 9 9
6 12 15 6 3 1 2 4 5 5 5 4 5 7 6 4 6 7 7 6 8 10 7 6 6 5 7 6 6 8 9 15 19 20 10 9 13 15 11 11 11 10 9 10 10 10 9 8 7
10 11 10 5 1 2 0 3 4 4 5 4 5 6 8 7 7 8 8 8 9 8 8 7 6 5 2 5 7 8 9 13 15 16 19 11 12 11 9 14 13 11 11 9 8 8 9 8 7
9 2 8 3 0 2 2 4 6 3 3 3 6 6 8 6 8 8 11 10 9 9 9 7 7 6 7 6 6 7 9 11 13 11 15 18 9 9 9 8 8 11 11 11 7 7 9 8 6
5 11 3 5 3 4 3 5 3 3 5 5 5 6 6 5 6 8 9 10 10 9 9 8 7 6 5 5 6 7 8 9 11 14 11 10 11 8 13 10 9 8 7 7 8 9 10 8 4
13 17 3 6 6 2 1 4 3 2 6 5 6 6 7 5 7 6 6 7 10 9 9 8 8 6 4 3 4 4 6 8 10 10 10 8 9 10 14 7 9 10 8 7 6 8 10 9 2
6 4 4 4 3 3 1 2 2 3 3 3 7 5 6 7 8 8 8 9 8 9 8 6 7 7 5 5 4 4 6 7 8 9 11 9 8 9 10 7 9 9 8 8 5 8 9 7 6
7 6 7 8 4 3 2 2 1 2 5 5 6 3 6 6 6 6 8 7 8 9 10 6 8 8 7 6 6 4 5 4 6 8 4 7 6 9 9 6 6 5 11 6 5 8 7 7 9
7 4 5 4 4 2 3 3 4 2 4 6 5 8 8 6 4 8 8 9 9 9 9 7 9 9 7 7 7 5 4 2 6 7 8 8 7 7 9 7 7 6 6 5 2 4 4 5 6
9 2 4 5 6 3 5 3 6 4 2 0 2 6 8 7 5 5 9 8 6 7 7 7 9 9 9 9 6 4 4 4 4 7 7 11 6 6 5 7 7 6 4 2 2 2 6 1 3
7 23 9 8 7 5 3 7 7 5 2 2 1 4 4 5 5 5 6 6 5 6 8 7 8 10 9 9 7 5 6 5 1 2 4 7 12 7 9 10 8 11 6 5 3 2 5 4 5
4 6 10 13 7 4 3 11 9 8 6 5 3 4 5 7 7 8 7 4 2 7 8 9 9 11 12 10 8 6 5 5 7 7 3 10 8 8 7 8 7 6 6 7 8 7 6 3 5
10 4 5 15 6 3 8 11 8 8 10 9 6 3 4 4 5 8 6 4 1 5 8 9 11 15 14 12 7 7 6 7 6 4 7 7 9 7 6 6 5 4 5 5 8 9 7 8 7
7 11 13 14 6 3 14 8 8 7 8 10 9 6 3 4 5 5 7 4 2 2 6 12 13 14 14 13 7 6 7 7 6 7 7 8 6 5 7 3 5 6 6 7 7 7 11 7 10
6 8 7 6 6 12 6 4 4 4 7 8 9 11 6 7 5 5 5 4 3 3 5 8 10 15 15 13 8 7 8 8 8 6 6 6 8 10 12 7 5 6 7 8 6 8 7 8 12
7 5 6 7 10 13 6 7 11 7 3 6 8 7 5 6 8 9 5 4 3 6 6 4 10 15 14 12 9 8 8 8 8 7 8 9 11 11 11 9 9 10 16 16 7 10 7 7 10
8 2 5 6 5 8 4 16 11 2 3 7 9 0 1 4 7 8 7 6 3 2 5 5 8 13 13 11 11 10 11 9 8 8 8 10 10 9 10 11 13 12 20 19 8 5 6 7 9
6 9 5 2 7 23 18 22 21 7 3 7 7 6 4 3 6 6 6 8 6 4 3 7 9 12 12 11 10 10 7 10 12 9 8 9 8 8 9 10 13 15 18 18 12 4 6 4 7
10 6 4 6 7 10 11 12 15 4 6 14 8 7 6 6 4 4 6 5 8 9 7 4 11 11 12 11 11 7 5 6 6 7 5 7 7 9 11 13 15 16 16 17 13 9 5 7 6
3 2 10 10 2 8 15 14 22 10 6 15 12 11 10 11 8 8 6 7 6 6 6 3 7 7 10 11 10 7 7 7 4 6 5 3 8 12 13 14 14 14 14 16 16 10 5 8 4
5 9 9 8 11 10 7 13 13 11 12 9 13 17 17 15 13 14 12 5 4 6 5 1 4 5 6 6 6 6 8 9 5 3 3 7 8 8 10 10 10 11 11 10 11 12 10 5 3
5 6 6 9 8 8 14 14 13 10 9 15 17 17 21 21 14 8 7 9 5 3 4 3 4 5 5 5 7 8 8 5 2 2 5 7 7 9 8 9 8 10 9 7 7 7 6 4 3
14 8 3 7 10 6 14 15 24 17 3 17 16 12 11 13 11 9 5 4 5 3 5 4 5 5 5 5 4 4 3 2 1 3 4 1 4 7 7 6 6 6 7 8 7 7 7 7 5
2 4 3 5 2 6 16 15 13 5 8 7 17 11 11 10 6 7 6 4 3 5 7 7 6 6 5 4 4 5 4 4 2 3 2 5 6 6 6 5 6 7 7 10 8 8 10 12 12
5 9 13 8 5 6 19 18 2 8 11 13 16 17 13 9 7 6 9 7 5 7 9 8 7 6 7 7 9 9 10 7 6 2 4 4 4 5 6 5 7 8 8 10 8 10 12 15 15
Wind_Direction
105 103 102 101 100 90 112 125 140 145 146 136 124 123 132 126 120 119 117 128 126 132 132 127 115 117 110 104 103 96 85 88 89 89 87 88 93 95 101 102 99 97 96 92 90 88 85 85 86
133 122 90 151 123 112 133 147 148 150 143 141 120 116 137 130 126 112 118 121 125 131 135 135 114 117 104 95 90 85 77 78 82 86 87 90 95 97 99 103 105 103 100 97 94 92 90 86 88
162 135 5 320 111 104 104 128 145 155 150 146 127 120 134 132 126 117 114 117 123 129 133 138 119 114 96 81 74 72 69 67 79 85 87 93 93 100 102 106 108 106 102 100 97 96 94 90 86
164 160 67 37 80 109 112 128 145 154 168 166 156 135 135 136 130 120 113 118 124 128 129 139 126 106 89 73 58 55 50 39 32 119 119 93 91 99 100 103 105 101 95 100 99 91 87 90 93
169 126 327 46 56 87 115 135 147 161 175 187 170 172 152 147 143 133 129 117 134 132 136 143 128 104 84 61 44 45 36 2 360 257 93 118 101 93 95 100 96 99 93 89 96 95 96 103 99
169 223 173 122 332 124 149 151 172 200 203 184 196 210 203 172 161 157 159 133 134 135 136 138 122 107 88 62 33 37 36 29 17 322 308 129 113 104 96 99 97 89 86 77 87 95 100 106 102
175 262 157 188 203 310 181 193 192 208 188 195 204 228 230 205 181 176 174 157 145 136 135 133 115 106 92 69 52 45 44 24 47 37 55 141 118 106 111 97 93 87 89 85 77 83 97 111 113
186 33 112 158 180 262 228 206 203 205 207 225 226 235 239 232 209 199 195 182 173 144 141 135 125 110 32 79 65 54 49 41 36 45 60 132 130 108 121 94 84 82 84 79 78 83 86 106 126
209 256 82 12 321 300 204 211 222 201 206 231 225 230 241 223 226 214 220 204 194 168 160 145 134 113 84 87 76 73 58 51 49 49 72 72 126 119 107 126 98 83 86 83 75 84 87 85 136
226 230 136 15 335 205 212 227 236 230 224 193 205 228 229 240 237 205 215 228 203 200 165 157 142 135 110 91 74 78 65 54 50 51 85 29 74 102 140 91 101 91 79 98 88 82 85 80 83
148 53 158 101 241 14 212 260 260 293 268 199 194 217 212 215 235 205 191 176 218 234 186 169 163 151 142 109 98 78 60 54 48 50 39 71 76 95 139 87 84 81 80 95 108 94 92 91 294
336 1 219 221 226 217 247 227 220 199 246 240 251 207 221 228 239 232 223 192 212 238 206 188 180 185 172 151 130 121 75 54 52 47 47 58 96 108 122 99 82 74 73 74 89 106 89 103 79
254 201 240 218 213 181 287 38 78 285 248 243 233 199 229 239 251 241 235 235 212 200 213 230 210 191 183 161 130 127 92 73 66 58 35 97 89 93 100 88 87 107 108 78 106 112 98 88 93
204 233 190 178 155 109 90 8 35 162 226 244 247 233 241 233 245 247 244 215 207 229 223 206 189 197 189 155 146 136 135 82 52 48 347 18 59 93 92 84 73 38 41 74 121 159 102 95 102
129 233 167 128 123 120 81 46 35 11 25 267 177 225 232 228 255 221 219 210 213 201 192 209 195 203 179 159 149 166 189 157 204 73 15 23 60 93 56 83 68 71 81 96 162 177 157 70 142
168 165 138 78 84 91 80 66 43 20 44 98 68 85 132 183 214 164 180 201 215 197 186 205 203 203 189 170 167 201 227 210 116 307 51 54 87 82 68 65 77 70 46 18 336 279 234 191 164
130 12 111 102 87 108 112 82 56 38 38 66 78 98 109 139 146 150 156 150 199 232 222 214 221 215 197 188 185 221 236 259 242 100 273 70 79 59 56 61 65 53 39 4 10 3 359 254 184
133 103 19 118 71 62 74 64 58 44 49 50 61 94 162 181 169 163 168 149 209 245 229 222 205 203 203 195 207 229 238 255 298 319 347 32 37 27 17 28 36 9 359 360 345 349 350 5 299
15 26 26 348 4 28 208 70 52 46 41 46 48 52 100 193 190 181 193 218 254 264 222 199 198 196 199 205 215 235 253 269 291 307 342 357 350 356 343 17 5 356 342 328 329 328 317 345 321
125 121 187 271 355 167 134 25 35 46 58 49 49 57 58 111 146 176 172 186 237 268 250 233 203 194 198 209 213 235 268 261 274 293 328 334 341 347 352 348 347 345 324 314 301 291 294 302 322
162 183 209 305 293 345 99 104 19 340 35 48 26 48 49 81 112 106 117 151 215 248 252 230 189 193 201 205 224 253 292 263 278 291 316 321 332 349 348 347 339 299 351 357 287 257 297 304 312
219 206 164 203 291 316 353 240 270 262 59 41 42 18 69 65 69 70 77 77 77 262 245 231 193 194 204 215 230 266 280 268 271 295 311 319 332 337 340 351 356 355 348 2 320 290 282 302 319
214 132 129 296 264 334 333 318 294 192 190 65 35 38 21 58 61 35 18 10 360 348 287 214 212 210 214 220 242 256 287 266 267 256 295 305 323 330 350 354 354 1 1 4 11 4 279 296 316
132 75 341 236 204 320 339 292 22 142 129 85 61 47 29 47 14 6 339 325 316 313 315 250 213 221 234 234 238 256 258 246 261 261 263 292 326 341 349 346 347 357 358 13 18 30 39 33 5
117 259 71 39 172 342 295 318 100 66 95 44 24 21 18 2 358 347 350 333 316 288 306 291 195 214 235 237 237 227 235 187 205 226 255 312 351 344 347 350 355 3 359 0 12 349 331 344 351
212 319 331 353 315 324 282 340 24 22 352 345 342 344 344 339 333 334 333 318 322 292 285 317 212 215 233 231 203 193 177 170 199 239 325 328 341 1 11 16 9 3 354 353 360 3 22 320 284
84 257 280 280 274 234 250 277 187 103 180 332 341 334 328 321 317 314 324 316 288 236 236 215 200 170 173 143 138 148 163 162 194 312 319 318 347 10 17 6 5 4 356 347 334 338 339 325 257
203 216 174 266 273 246 289 301 309 157 309 303 318 329 322 312 296 298 287 311 287 240 194 227 218 199 182 179 170 170 166 176 254 326 337 97 353 355 0 2 359 355 359 355 333 292 287 293 293
312 182 74 303 257 250 271 292 320 60 326 305 337 348 344 328 295 281 270 274 265 222 199 192 209 202 195 188 192 203 207 230 236 124 24 350 343 346 357 9 355 344 333 335 317 298 265 259 249
139 216 255 249 299 304 282 145 191 325 329 337 330 352 344 323 318 297 296 273 220 211 207 204 199 198 200 205 215 219 226 228 194 283 320 330 327 340 352 6 356 339 330 318 304 284 300 262 253
Height
5879 5878 5879 5877 5877 5874 5879 5887 5886 5890 5891 5891 5890 5892 5893 5892 5894 5896 5894 5894 5895 5897 5897 5898 5899 5898 5899 5899 5898 5897 5897 5897 5895 5895 5896 5895 5895 5894 5893 5892 5892 5892 5892 5893 5894 5894 5894 5895 5896
5881 5880 5880 5873 5876 5879 5882 5885 5887 5890 5891 5892 5893 5895 5896 5896 5895 5896 5897 5896 5896 5898 5899 5900 5901 5901 5901 5901 5901 5900 5900 5899 5898 5898 5898 5898 5897 5897 5897 5896 5895 5894 5895 5895 5896 5897 5898 5898 5899
5882 5881 5882 5859 5864 5881 5885 5888 5890 5892 5893 5894 5895 5897 5898 5898 5898 5898 5898 5897 5898 5899 5901 5902 5903 5903 5903 5904 5904 5903 5903 5901 5900 5900 5900 5900 5900 5899 5900 5900 5898 5898 5898 5898 5899 5900 5900 5901 5901
5883 5885 5883 5878 5878 5882 5888 5890 5891 5893 5894 5895 5897 5898 5900 5900 5900 5901 5900 5899 5900 5901 5903 5904 5905 5906 5906 5906 5906 5906 5905 5904 5902 5902 5902 5902 5903 5903 5903 5903 5902 5901 5901 5902 5902 5903 5903 5904 5904
5885 5886 5884 5871 5883 5885 5890 5892 5893 5895 5896 5897 5899 5900 5901 5902 5902 5902 5902 5902 5901 5903 5905 5906 5907 5907 5908 5908 5908 5907 5906 5905 5903 5901 5902 5904 5905 5905 5906 5905 5905 5904 5904 5904 5904 5904 5905 5906 5906
5887 5885 5884 5882 5886 5891 5892 5894 5895 5896 5897 5898 5899 5901 5903 5903 5904 5903 5902 5904 5904 5904 5905 5907 5909 5909 5910 5910 5910 5909 5908 5907 5903 5902 5903 5905 5907 5907 5908 5908 5907 5907 5907 5907 5907 5907 5907 5907 5908
5886 5882 5882 5881 5886 5890 5892 5894 5896 5897 5898 5899 5900 5902 5904 5904 5905 5905 5905 5905 5905 5907 5908 5909 5911 5911 5912 5912 5912 5911 5910 5908 5906 5903 5902 5906 5908 5909 5909 5910 5909 5909 5909 5909 5909 5909 5910 5910 5911
5884 5854 5878 5887 5885 5892 5893 5895 5897 5898 5897 5898 5900 5902 5904 5905 5905 5906 5907 5907 5907 5908 5909 5911 5912 5913 5913 5913 5913 5913 5912 5911 5909 5908 5905 5907 5909 5910 5911 5912 5911 5910 5910 5911 5912 5912 5911 5912 5912
5886 5888 5888 5888 5887 5891 5893 5894 5895 5897 5899 5899 5900 5902 5903 5904 5905 5907 5907 5908 5909 5908 5910 5911 5913 5914 5914 5915 5914 5914 5914 5914 5913 5911 5910 5909 5909 5911 5912 5912 5913 5913 5912 5912 5913 5913 5913 5914 5914
5888 5886 5888 5889 5890 5889 5892 5894 5897 5899 5898 5899 5900 5901 5902 5903 5905 5906 5908 5909 5910 5909 5910 5912 5914 5914 5915 5915 5915 5916 5917 5917 5916 5914 5911 5910 5910 5910 5912 5913 5913 5914 5914 5914 5915 5915 5914 5915 5916
5886 5888 5891 5889 5892 5894 5894 5896 5900 5899 5897 5898 5899 5900 5902 5903 5905 5907 5908 5909 5910 5910 5912 5913 5914 5915 5916 5916 5916 5917 5919 5919 5918 5916 5914 5912 5911 5911 5912 5914 5915 5914 5914 5915 5916 5916 5916 5916 5918
5893 5891 5895 5895 5896 5896 5896 5898 5899 5900 5899 5899 5901 5899 5902 5903 5904 5906 5908 5910 5910 5910 5912 5913 5915 5916 5917 5917 5917 5919 5920 5921 5920 5918 5917 5915 5912 5913 5914 5914 5916 5916 5917 5917 5917 5917 5917 5917 5917
5894 5894 5898 5898 5898 5899 5897 5898 5900 5900 5899 5900 5900 5899 5901 5902 5903 5904 5907 5909 5909 5911 5912 5913 5914 5916 5917 5918 5920 5921 5920 5921 5920 5919 5917 5915 5914 5915 5916 5917 5917 5912 5911 5918 5920 5919 5919 5918 5916
5893 5896 5899 5899 5899 5899 5899 5898 5898 5900 5899 5899 5898 5899 5901 5901 5902 5904 5906 5908 5910 5911 5912 5914 5914 5916 5918 5919 5920 5922 5921 5922 5923 5922 5918 5917 5919 5919 5918 5919 5918 5914 5909 5918 5922 5922 5921 5920 5919
5899 5900 5898 5900 5901 5902 5899 5899 5897 5897 5898 5897 5898 5898 5898 5900 5902 5904 5905 5908 5909 5911 5912 5914 5914 5916 5918 5920 5921 5921 5920 5922 5920 5919 5920 5918 5920 5921 5921 5921 5921 5921 5921 5922 5923 5922 5921 5922 5921
5899 5882 5894 5900 5902 5905 5904 5901 5900 5900 5899 5898 5897 5896 5897 5900 5902 5903 5905 5907 5908 5910 5912 5914 5914 5916 5919 5920 5921 5920 5919 5924 5924 5923 5923 5920 5918 5923 5923 5921 5921 5922 5923 5924 5923 5922 5920 5921 5921
5896 5891 5896 5898 5904 5906 5905 5903 5903 5902 5900 5898 5898 5898 5899 5901 5902 5903 5905 5906 5907 5909 5910 5912 5914 5916 5918 5920 5921 5920 5921 5924 5924 5920 5916 5916 5920 5922 5923 5922 5921 5921 5921 5922 5922 5922 5922 5922 5919
5896 5900 5897 5893 5906 5907 5906 5904 5905 5905 5903 5901 5900 5900 5900 5902 5903 5904 5905 5906 5907 5907 5909 5910 5912 5914 5918 5920 5921 5920 5923 5925 5924 5925 5923 5920 5922 5923 5923 5921 5920 5921 5921 5921 5921 5921 5920 5920 5920
5898 5900 5898 5896 5910 5910 5903 5904 5909 5908 5907 5904 5904 5902 5901 5902 5903 5904 5905 5906 5906 5906 5907 5909 5910 5914 5917 5919 5922 5922 5922 5925 5926 5924 5925 5922 5924 5925 5924 5922 5921 5921 5920 5920 5919 5919 5917 5918 5918
5908 5911 5915 5913 5912 5909 5905 5909 5910 5910 5910 5909 5907 5906 5906 5904 5903 5904 5904 5905 5905 5906 5907 5909 5910 5913 5916 5918 5920 5923 5923 5924 5924 5926 5925 5927 5926 5925 5923 5923 5922 5919 5919 5917 5917 5916 5916 5916 5916
5911 5911 5913 5915 5912 5911 5901 5904 5911 5912 5910 5910 5908 5907 5909 5907 5905 5903 5903 5904 5905 5905 5907 5908 5910 5913 5915 5918 5919 5921 5923 5925 5927 5928 5927 5927 5927 5925 5923 5923 5922 5918 5915 5914 5913 5914 5915 5915 5915
5914 5912 5912 5914 5912 5912 5909 5902 5907 5909 5909 5909 5908 5910 5910 5908 5906 5905 5905 5906 5906 5905 5906 5908 5910 5912 5914 5917 5918 5920 5922 5924 5926 5927 5927 5927 5927 5925 5924 5923 5923 5919 5917 5913 5911 5914 5915 5914 5914
5909 5910 5909 5913 5915 5910 5909 5908 5902 5902 5909 5906 5907 5908 5909 5909 5908 5908 5908 5907 5906 5906 5906 5907 5909 5911 5913 5916 5917 5919 5921 5923 5924 5925 5926 5926 5926 5925 5924 5923 5922 5921 5918 5914 5912 5912 5911 5913 5913
5908 5909 5911 5911 5915 5916 5909 5907 5909 5906 5903 5904 5908 5909 5909 5910 5909 5910 5909 5908 5908 5906 5905 5905 5907 5909 5911 5913 5915 5917 5919 5920 5923 5923 5924 5925 5926 5925 5923 5922 5921 5919 5918 5917 5914 5914 5914 5913 5914
5910 5913 5913 5914 5916 5917 5907 5906 5900 5906 5906 5908 5911 5911 5910 5908 5910 5909 5909 5908 5906 5906 5905 5905 5906 5908 5909 5911 5913 5915 5917 5919 5921 5922 5924 5926 5925 5925 5923 5922 5921 5919 5918 5916 5915 5914 5914 5915 5914
5912 5913 5912 5913 5917 5916 5910 5906 5900 5905 5905 5911 5911 5911 5910 5909 5907 5906 5908 5907 5906 5905 5906 5905 5905 5907 5909 5911 5912 5914 5916 5920 5921 5923 5923 5924 5926 5926 5924 5922 5921 5920 5919 5918 5916 5916 5915 5914 5913
5910 5915 5917 5917 5918 5917 5910 5912 5910 5906 5908 5909 5909 5909 5909 5908 5906 5905 5903 5903 5906 5905 5904 5906 5907 5908 5910 5912 5913 5915 5917 5920 5921 5922 5922 5923 5923 5923 5923 5922 5921 5920 5918 5917 5916 5915 5913 5914 5912
5906 5911 5914 5915 5914 5914 5908 5910 5907 5899 5908 5906 5908 5907 5906 5905 5903 5904 5903 5903 5902 5903 5904 5905 5907 5909 5910 5912 5913 5915 5917 5919 5920 5921 5921 5922 5923 5923 5922 5921 5920 5919 5918 5916 5914 5913 5912 5911 5910
5909 5909 5913 5916 5912 5913 5908 5908 5906 5903 5909 5906 5904 5905 5903 5902 5901 5900 5901 5901 5901 5902 5904 5906 5907 5909 5910 5912 5913 5915 5916 5918 5919 5920 5921 5922 5922 5922 5921 5920 5919 5918 5917 5915 5913 5910 5908 5907 5905
5909 5910 5912 5913 5913 5912 5903 5901 5909 5910 5906 5906 5902 5903 5902 5900 5899 5898 5898 5898 5899 5900 5902 5904 5906 5908 5910 5911 5913 5914 5916 5917 5919 5920 5921 5921 5922 5921 5920 5920 5918 5917 5916 5914 5912 5909 5908 5905 5903